User: anonymous   Login
Location: Bédeille
(43.0872°N, 1.1041°E)
Time: 18:41:09
(UTC+00:00)
Language:

Cosmos 1461 - Orbit

View from above orbital plane
View from above orbital plane
View from above satellite
View from above satellite

Ground track
Ground track

The orbit data is extracted from the following two-line orbital elements,

1 14064U 83044A   24140.58626353  .00019234  00000-0  12034-2 0  9994
2 14064  64.9981 347.6334 0062883 128.5537 232.1245 15.07825487101628
Epoch (UTC): 19 May 2024 14:04:13
Eccentricity: 0.0062883
inclination: 64.9981°
perigee height: 499 km
apogee height: 586 km
right ascension of ascending node: 347.6334°
argument of perigee: 128.5537°
revolutions per day: 15.07825487
mean anomaly at epoch: 232.1245°
orbit number at epoch: 10162

The dashed part of the orbit path shows where the satellite is in the earth's shadow,  

DLR